Location: Basse Occidentale du Courleau
(48.3833°N, 4.8333°W)
Time: 09:51:13
(UTC+00:00)

Cosmos 1408 - Pass Details

Date: 05 July 2020
Orbit: 471 x 493 km, 82.6° (Epoch: 07 August)

Event Time Altitude Azimuth Distance (km) Brightness Sun altitude
Exits shadow 23:03:15 41° 165° (SSE) 704 2.8 -16.7°
Maximum altitude 23:04:21 67° 97° (E) 516 2.5 -16.7°
Drops below altitude 10° 23:07:55 10° 14° (NNE) 1,646 6.1 -16.9°
Sets 23:10:01 0° 12° (NNE) 2,528 7.3 -17.0°
